Wind_Speed
32 30 29 29 27 24 25 24 22 21 20 18 18 19 19 18 16 15 14 13 13 12 12 13 13 14 14 14 15 16 16 16 15 15 15 15 16 16 17 16 16 16 16 16 16 16 15 14 14 13 13 12 12 11 10 9 9 8 8 8 8 8 7
33 33 30 28 28 26 25 25 23 21 20 19 19 20 20 19 17 15 15 13 13 13 12 13 13 13 13 14 15 16 16 16 16 16 16 17 17 17 17 17 17 16 17 17 17 17 17 16 15 14 13 13 13 12 11 11 10 9 9 8 8 8 7
29 35 33 27 26 27 25 25 24 22 20 20 21 22 21 19 17 16 15 14 13 13 13 14 13 13 13 14 15 15 16 16 16 16 16 16 17 17 17 16 16 16 16 17 17 17 17 16 15 15 14 14 14 13 12 12 11 11 10 9 9 9 8
23 30 35 30 26 27 26 25 24 22 21 21 21 22 21 19 17 16 15 15 14 14 14 14 14 14 14 14 14 15 15 15 15 15 16 16 16 17 17 16 16 15 16 16 17 17 17 16 15 15 15 15 14 14 13 13 12 12 11 10 10 10 10
22 27 33 34 29 28 27 25 24 23 21 21 22 22 21 19 18 17 16 15 15 15 14 15 15 15 15 14 15 15 15 16 15 15 16 16 16 17 17 16 16 16 16 16 17 17 17 16 16 15 15 15 15 15 14 13 13 12 12 11 11 11 11
21 29 32 33 30 28 27 25 24 22 21 20 21 22 21 20 19 18 16 16 16 16 16 16 17 17 16 16 16 16 16 16 16 16 16 15 15 16 16 16 16 16 17 17 17 17 17 16 16 16 16 16 16 15 15 14 14 13 13 12 12 12 12
14 24 29 31 30 29 27 26 24 22 21 20 20 22 22 21 21 19 18 17 17 17 17 17 18 18 18 17 17 17 17 16 16 16 16 15 15 15 15 16 16 17 18 18 18 18 17 17 17 17 17 17 16 16 16 15 15 14 14 13 13 13 13
7 14 21 26 28 30 29 27 25 24 23 22 22 22 22 22 22 21 20 19 19 19 18 18 18 19 19 19 19 18 18 17 17 17 17 17 16 16 16 16 16 18 19 19 19 19 18 18 18 18 18 17 17 17 17 16 15 15 14 14 14 14 14
9 12 16 20 23 26 27 27 27 27 26 26 24 23 23 23 23 23 22 21 20 20 19 18 18 19 20 20 20 20 19 19 19 19 18 18 17 16 16 16 17 17 18 19 19 19 19 18 18 18 18 18 18 17 17 16 16 16 15 15 15 15 15
14 14 16 19 20 21 24 25 27 29 29 28 27 26 25 25 23 23 23 23 22 21 20 19 19 20 21 21 21 21 21 21 21 21 20 19 18 17 17 17 17 17 18 18 19 19 18 18 18 18 18 18 18 17 17 17 17 16 15 15 16 16 16
13 14 15 18 20 22 24 24 26 28 29 30 29 29 30 29 27 26 25 24 23 22 21 21 21 21 22 23 23 23 23 23 22 22 22 20 19 18 18 17 17 17 17 18 18 17 17 17 17 17 17 17 17 17 17 17 17 17 16 16 16 16 17
12 14 15 17 20 23 25 26 26 27 27 28 28 29 30 30 29 30 29 27 26 24 23 22 23 23 23 25 25 25 25 25 25 24 23 22 21 20 19 19 18 17 17 17 17 17 17 17 17 16 16 16 16 16 17 17 17 16 16 16 16 16 17
11 13 15 16 18 20 23 26 27 27 27 26 26 27 27 27 28 29 30 30 30 29 26 25 25 25 24 25 27 27 26 26 26 26 25 24 23 22 21 21 20 19 18 18 18 18 17 17 17 16 16 16 16 16 17 17 17 16 15 15 16 16 16
9 11 13 14 14 16 18 21 23 25 27 27 28 29 29 29 29 30 31 32 31 31 30 29 28 27 26 26 27 28 27 26 26 27 27 26 26 25 24 23 22 21 20 19 19 19 18 18 17 17 17 17 17 17 18 18 17 16 16 15 16 17 17
7 9 11 11 10 10 11 13 16 19 22 25 28 30 30 31 31 31 32 33 32 32 31 32 32 32 30 28 28 28 28 28 27 27 27 27 27 26 25 24 23 22 22 21 20 20 19 19 18 18 18 18 18 18 18 18 17 17 17 16 17 18 18
5 6 8 9 8 8 8 9 12 15 18 20 22 24 27 28 29 29 30 32 33 33 34 35 36 36 34 31 29 28 29 29 29 28 27 27 27 27 26 25 24 23 23 22 21 20 20 19 19 19 19 19 19 18 18 17 17 17 18 17 18 18 17
3 4 5 7 7 6 7 8 10 13 15 15 14 16 19 21 23 25 28 32 34 35 36 37 37 36 35 33 30 29 29 30 30 30 29 28 27 27 26 26 25 24 24 23 22 22 21 21 20 20 20 20 19 19 18 17 18 18 18 18 18 18 17
5 4 4 4 5 5 6 7 9 11 13 13 12 13 14 16 19 23 27 32 35 36 37 38 38 36 36 35 33 32 32 32 31 31 31 30 29 27 27 27 26 25 25 24 24 23 23 22 22 22 22 21 20 20 19 19 19 19 19 19 19 19 19
7 6 4 4 4 4 5 6 8 10 12 14 14 14 14 15 18 21 25 30 34 36 38 39 38 37 37 37 36 36 36 35 33 32 31 30 30 29 28 28 27 26 26 26 25 24 24 23 23 23 23 23 22 21 21 21 20 20 21 21 21 21 20
8 7 6 5 5 5 5 7 9 10 12 15 16 16 16 16 18 21 24 27 31 34 37 39 39 39 38 37 36 37 37 35 32 31 31 31 31 31 31 29 29 28 28 27 27 25 25 25 25 24 24 24 24 23 23 23 22 22 22 22 22 22 22
9 8 6 5 4 4 5 6 9 11 13 15 16 16 16 17 18 19 23 26 28 31 33 36 38 39 39 38 37 38 38 35 33 34 35 33 32 32 32 31 30 30 29 29 28 27 27 27 27 26 24 24 24 24 24 23 22 22 22 22 22 23 23
9 7 6 5 5 4 3 4 7 10 12 14 15 15 15 16 17 18 20 23 26 28 29 31 34 36 39 40 40 38 37 36 37 38 36 33 32 31 31 32 32 32 31 30 29 28 29 29 28 27 25 24 25 25 24 23 22 22 22 22 22 22 23
9 8 7 5 5 4 3 2 4 7 9 11 12 13 14 16 17 17 18 20 22 24 25 25 27 30 34 38 38 36 36 37 39 39 38 35 33 33 32 32 32 33 32 31 30 29 29 29 30 28 26 25 26 26 25 24 24 23 23 23 23 23 24
8 7 6 5 4 3 4 4 4 6 6 7 8 10 11 13 16 17 18 17 16 17 17 17 19 21 25 30 32 33 34 36 39 40 38 36 34 34 33 31 30 31 31 30 31 31 31 30 30 28 26 26 26 25 25 25 26 26 26 25 25 25 26
5 5 3 4 3 2 3 4 5 6 6 6 6 6 8 10 12 12 11 9 9 10 11 13 14 15 18 22 25 27 28 31 36 37 36 36 35 34 32 30 30 31 29 29 31 32 32 31 29 28 27 26 25 25 25 26 28 28 28 28 28 28 29
4 4 4 4 3 2 2 2 3 4 5 5 5 4 5 6 7 3 6 6 6 7 7 9 11 12 15 18 20 22 25 28 33 35 34 35 35 34 32 31 30 30 28 27 29 30 30 29 28 28 30 29 27 27 27 28 30 32 33 33 33 32 31
4 4 5 4 2 1 2 2 3 3 4 4 3 2 3 3 3 1 4 5 7 9 9 11 13 14 15 17 18 20 23 26 29 31 32 32 32 31 31 30 28 26 25 25 27 28 27 26 26 28 31 31 30 30 30 32 33 34 36 37 37 35 33
3 3 3 1 0 1 2 3 3 3 3 3 3 3 2 2 2 3 3 4 5 8 9 12 15 16 16 17 18 20 21 23 26 27 29 31 31 31 31 31 29 28 26 25 26 29 28 26 25 28 30 32 32 32 33 33 33 34 36 37 37 36 34
1 1 1 1 2 3 4 4 4 3 2 2 3 3 2 2 2 2 2 3 4 7 9 9 12 14 16 18 20 20 19 21 23 25 27 27 29 31 32 32 33 32 31 29 28 28 28 27 26 26 29 31 31 31 32 32 31 31 30 29 30 31 32
4 3 3 3 4 5 6 5 5 5 4 3 1 0 1 1 0 0 1 1 0 3 6 7 7 9 11 14 15 15 16 18 20 21 19 17 20 23 23 23 26 27 29 32 31 29 27 25 24 25 27 29 29 29 31 31 31 28 22 20 22 25 27
6 6 7 6 6 7 8 7 7 7 5 4 3 2 2 1 2 2 1 0 1 3 4 4 5 5 4 5 7 8 11 13 13 12 11 12 14 14 12 15 17 18 20 23 25 24 24 23 24 26 28 29 30 30 31 31 30 26 21 21 23 26 29
8 8 8 8 8 9 9 9 9 9 7 6 5 5 4 3 3 3 2 1 1 2 4 4 4 3 2 3 4 4 6 9 9 8 8 9 10 11 11 14 16 17 19 20 20 24 26 26 27 28 28 28 30 29 29 30 28 24 24 27 30 31 32
10 10 9 9 9 10 11 11 10 10 9 8 7 8 7 6 5 4 4 4 2 1 1 2 3 2 2 3 3 3 5 6 7 6 6 6 6 8 11 12 12 14 17 17 17 19 19 18 19 21 22 23 24 23 22 23 22 22 24 27 29 28 28
11 10 9 8 8 9 10 10 9 9 9 8 8 9 9 8 8 7 7 7 6 5 4 2 0 1 0 1 2 3 3 3 3 3 3 3 4 5 6 5 3 3 5 4 4 6 5 5 8 12 14 15 15 13 12 12 13 16 19 20 21 22 22
9 8 7 6 6 6 6 6 6 6 6 6 6 7 7 7 7 7 8 8 7 7 6 5 5 5 5 4 3 2 1 1 1 2 2 2 3 3 3 3 3 2 1 1 1 2 3 3 4 6 7 8 8 6 6 6 7 10 12 13 14 15 15
6 6 5 5 5 5 5 5 4 4 4 4 4 5 5 5 5 5 6 6 6 6 5 5 5 5 5 5 4 4 4 3 2 2 2 2 3 3 4 4 4 3 3 3 4 4 5 5 6 6 7 7 6 6 5 5 6 7 8 8 9 10 10
4 4 4 4 4 4 4 4 4 4 4 4 4 4 4 4 4 4 4 4 4 4 4 4 4 4 4 4 4 4 4 4 4 3 3 3 4 5 5 6 6 6 6 7 7 7 8 8 9 9 10 9 9 9 8 8 8 8 8 9 9 9 9
3 3 3 3 3 2 2 2 2 2 2 2 2 2 3 3 3 3 3 3 3 3 3 3 3 4 4 4 5 5 5 5 5 5 6 6 7 7 8 8 8 8 8 9 9 9 10 10 11 11 12 12 12 12 11 11 11 11 11 11 11 11 11
Wind_Direction
221 217 216 213 207 200 195 193 190 190 191 192 198 205 208 209 208 206 202 200 201 203 204 203 202 202 202 202 204 204 205 205 204 203 203 203 202 199 198 198 196 194 195 195 192 194 200 203 201 201 202 205 208 210 212 215 216 215 216 216 216 219 223
223 217 214 214 211 203 198 196 194 194 195 195 198 204 209 211 211 210 207 203 204 206 209 210 210 209 208 207 208 208 209 209 207 205 205 207 206 204 203 204 202 200 199 200 199 199 202 204 204 205 206 208 212 213 214 219 222 222 223 222 221 221 223
224 218 214 213 214 207 201 200 198 197 198 198 200 204 208 211 212 213 212 209 207 209 212 215 215 214 214 215 214 213 212 212 212 211 209 208 209 209 208 209 209 207 205 206 207 206 206 207 207 208 209 211 215 216 217 220 223 225 227 227 227 227 229
227 221 215 214 217 213 207 205 203 200 199 201 203 206 208 210 212 214 216 215 213 212 215 218 220 219 219 220 221 220 218 216 215 215 214 213 214 214 214 214 215 215 214 214 214 213 212 211 210 210 210 212 215 218 220 223 224 225 227 228 229 230 234
218 211 211 214 217 216 211 209 207 204 202 203 205 206 207 207 210 215 218 219 218 216 216 219 221 222 221 222 224 224 223 221 219 219 219 219 220 221 221 220 220 221 222 223 221 219 217 215 213 213 213 213 216 219 221 224 226 225 225 227 229 232 235
201 196 201 208 214 216 212 210 210 208 207 208 208 207 205 205 208 212 216 221 222 222 220 220 222 223 222 223 224 226 227 225 223 223 224 226 229 229 228 228 227 226 227 228 227 225 223 220 218 217 217 216 217 219 221 223 226 227 226 227 230 234 237
194 196 198 201 207 213 213 212 213 213 213 214 213 210 207 207 209 209 213 219 223 225 224 224 226 227 226 226 226 227 228 228 227 227 228 230 234 236 235 235 234 233 232 231 231 230 228 226 223 221 220 219 218 219 221 222 224 228 230 231 233 236 239
198 208 208 205 208 212 214 216 218 220 221 222 220 215 212 211 211 211 213 216 221 225 226 226 227 230 230 229 228 229 230 230 228 227 228 230 232 235 237 238 237 236 235 234 234 233 231 229 228 226 224 222 220 221 222 223 225 228 232 234 237 239 242
196 209 213 211 214 218 221 223 226 228 229 229 228 224 219 216 215 215 215 216 220 225 228 230 230 230 231 231 230 230 230 231 230 227 227 227 228 230 232 234 235 235 235 235 235 235 234 232 231 230 228 226 223 223 224 225 227 230 233 237 239 241 243
196 204 208 208 212 222 227 227 231 235 235 233 234 233 227 222 220 220 218 217 220 224 229 234 234 230 229 230 230 231 230 230 230 229 227 226 226 227 228 228 229 232 233 234 236 237 237 236 235 234 233 231 228 227 227 228 230 232 235 238 241 243 244
200 205 210 210 213 224 229 227 228 232 234 234 236 238 236 229 224 223 221 220 222 225 229 235 237 232 229 228 227 229 229 229 230 230 229 228 226 226 226 226 227 229 231 232 234 236 237 237 237 237 237 236 234 233 234 233 232 232 234 238 241 242 244
203 209 212 211 213 221 226 227 227 228 230 232 234 239 241 236 229 225 224 222 222 226 231 238 242 238 232 229 228 227 227 227 228 228 229 229 228 227 226 227 228 230 230 231 233 235 236 237 238 239 239 239 239 239 239 238 236 234 235 238 241 243 244
205 215 216 214 213 216 220 223 227 229 231 233 235 238 242 243 239 236 234 229 225 224 224 230 241 244 239 234 231 230 230 229 228 228 228 228 228 229 227 226 227 229 229 230 231 232 234 236 238 239 239 239 239 240 242 242 242 240 240 240 242 245 246
209 216 217 216 214 215 218 221 225 230 233 235 237 239 241 244 247 248 248 245 239 233 227 222 227 236 241 239 236 234 233 233 232 230 228 227 227 229 229 228 228 228 229 229 229 230 231 232 233 236 237 238 239 240 242 244 246 246 246 246 246 247 247
220 224 222 221 218 219 222 224 228 233 235 237 239 242 244 246 249 251 252 252 251 248 242 234 226 226 229 233 236 237 235 234 234 233 231 230 229 229 230 230 231 231 231 231 231 232 233 232 232 233 234 236 237 239 241 244 247 249 249 248 249 249 248
219 229 231 234 237 237 231 229 231 234 239 242 244 247 250 251 253 252 251 252 253 252 249 246 239 231 226 224 225 229 234 235 234 234 233 232 231 231 230 231 231 232 233 233 233 235 237 238 237 236 234 235 236 238 241 243 245 246 248 248 249 251 251
186 209 226 239 245 248 243 239 237 237 240 243 244 249 253 253 254 253 250 250 251 252 251 251 248 242 236 228 221 220 225 231 233 233 233 231 231 231 231 231 231 232 233 235 235 236 239 241 242 241 240 239 240 241 243 245 245 244 245 247 250 252 252
145 169 202 229 240 251 253 250 248 245 242 238 233 238 246 249 249 248 247 246 246 248 250 250 249 246 240 234 227 221 221 225 227 229 231 231 230 230 231 231 232 232 232 233 234 235 237 239 241 244 245 245 245 245 246 248 249 247 245 244 247 250 253
140 156 177 202 218 240 248 252 252 248 245 242 237 236 241 247 249 247 245 244 242 243 246 248 249 247 241 236 230 225 223 224 224 225 227 229 230 230 231 231 232 232 232 233 234 234 235 237 239 242 245 247 247 246 245 245 247 247 247 247 247 249 253
138 149 166 185 201 223 233 243 247 246 246 247 246 245 245 249 251 249 246 244 242 242 243 245 248 249 247 245 240 234 230 227 226 226 226 227 229 230 231 232 233 233 233 234 235 235 235 235 236 238 241 245 247 245 244 244 246 247 248 249 250 251 253
132 137 147 156 167 189 215 234 243 248 250 249 250 251 251 251 252 249 246 245 245 245 245 245 245 244 245 247 247 243 238 232 229 229 227 225 226 228 229 231 233 234 234 235 236 237 236 235 234 235 238 241 244 245 244 244 247 249 250 251 252 254 255
134 134 134 134 139 147 174 228 245 252 254 254 254 253 253 254 254 251 246 243 243 246 248 248 246 242 240 241 243 243 241 236 233 231 230 228 228 228 229 230 231 232 233 235 235 237 239 238 234 233 235 238 241 242 242 242 244 246 248 250 252 254 256
136 132 128 131 143 149 157 205 246 253 255 255 253 252 253 254 253 249 243 239 239 244 246 247 246 242 239 237 238 239 239 238 237 235 233 233 233 233 232 231 231 231 230 231 234 235 236 236 234 233 234 236 238 239 240 240 242 244 246 249 251 253 255
131 124 125 139 153 158 163 184 215 229 241 249 249 250 252 251 250 247 240 236 236 239 245 251 250 246 241 236 234 235 235 235 237 236 234 234 236 238 238 238 238 235 229 227 231 233 230 227 229 232 234 234 236 239 241 243 245 246 248 249 251 252 254
134 132 150 168 176 173 164 182 209 218 228 232 235 250 254 256 262 252 233 233 242 245 257 263 253 245 240 232 230 233 232 230 231 232 233 234 236 240 243 244 245 244 237 229 229 232 232 226 224 228 233 236 238 242 246 249 250 251 251 251 252 252 253
174 176 197 199 199 198 178 183 204 214 224 219 213 233 252 275 298 269 189 192 217 226 245 253 241 236 234 228 226 230 231 229 228 230 233 233 234 239 243 244 245 247 246 237 229 230 233 229 224 226 232 237 241 246 251 254 254 254 253 252 253 253 255
193 181 196 205 201 176 165 160 168 186 205 199 178 186 228 270 306 236 190 194 193 190 200 217 223 225 221 217 218 222 225 226 225 227 230 232 233 237 240 242 246 250 251 244 235 233 234 229 227 230 233 237 241 245 251 256 257 257 256 254 253 253 253
202 174 182 200 115 106 125 130 136 161 192 195 174 172 200 229 229 217 228 244 225 213 214 217 217 214 212 215 218 220 226 230 227 228 232 234 237 240 240 242 244 248 251 247 239 237 236 231 230 234 236 239 242 245 249 253 257 260 259 254 251 249 251
169 147 114 75 82 90 98 108 114 118 131 171 194 199 201 213 229 228 244 267 253 246 248 240 222 218 228 236 232 226 230 234 233 234 237 238 239 240 242 244 245 245 246 245 238 234 235 235 234 236 239 242 244 246 249 251 256 264 263 252 245 245 248
79 96 102 102 99 90 88 95 97 91 86 87 96 168 166 146 137 299 279 314 257 235 250 253 232 224 240 250 242 234 235 234 227 228 232 233 235 235 233 237 242 241 240 240 236 231 232 234 234 238 245 249 250 250 252 254 259 265 262 244 235 238 243
102 108 111 111 108 97 91 92 91 86 80 76 71 52 33 22 14 25 36 93 156 189 213 218 211 211 225 236 240 247 250 244 232 226 227 234 245 246 231 224 233 236 232 230 228 224 225 230 235 241 248 253 255 254 254 256 260 261 254 242 238 240 245
117 118 119 118 115 108 102 98 94 91 87 84 84 77 65 50 21 17 34 63 171 213 218 209 207 210 181 179 209 236 243 245 248 245 242 245 256 262 248 234 235 236 231 227 222 222 226 232 237 242 246 249 251 251 249 250 253 253 250 248 249 250 253
126 124 124 122 122 123 120 117 112 105 100 100 98 93 87 80 68 54 53 56 60 79 228 228 233 233 189 176 198 214 213 226 238 241 242 245 253 256 249 239 230 225 224 224 220 222 229 232 231 234 241 245 247 246 242 239 240 240 242 247 251 255 259
135 132 132 132 133 133 130 128 125 118 111 108 105 100 95 91 85 78 72 65 60 60 61 58 9 314 8 157 182 200 205 219 241 256 267 271 270 267 264 265 264 225 220 227 224 228 243 245 229 232 243 252 255 254 248 240 235 236 242 247 253 258 261
130 128 127 125 122 122 123 123 121 116 109 103 99 93 87 84 82 79 78 73 67 62 57 49 38 28 21 22 26 25 12 14 16 0 349 339 327 314 305 311 329 338 333 330 311 292 293 282 262 257 262 268 276 277 269 256 242 240 247 250 253 257 260
114 103 92 85 80 80 86 92 92 91 89 85 80 77 73 69 65 59 57 58 56 52 48 41 32 25 19 11 7 4 3 7 18 20 4 348 331 318 306 295 284 273 263 257 259 263 266 264 267 270 268 268 270 267 261 257 250 246 249 252 254 258 262
95 85 79 82 83 76 72 73 70 71 74 70 62 56 52 48 45 42 38 34 30 24 19 14 8 0 354 348 342 339 339 337 333 324 313 305 300 295 292 286 278 270 265 262 259 259 261 261 262 264 266 266 265 262 260 259 258 257 258 258 260 263 265
108 110 113 118 120 114 103 94 79 67 60 55 43 31 23 17 12 10 6 2 0 354 343 336 331 325 321 318 315 315 317 315 311 305 300 295 291 288 285 284 282 277 271 268 266 264 263 263 263 263 264 265 265 266 266 264 263 263 263 264 265 267 268
Height
3171 3174 3177 3180 3183 3185 3187 3190 3192 3194 3196 3198 3200 3202 3204 3205 3206 3208 3210 3211 3213 3214 3215 3217 3218 3219 3221 3222 3223 3224 3224 3225 3226 3227 3228 3229 3229 3230 3230 3231 3232 3232 3233 3234 3235 3236 3236 3237 3239 3239 3240 3241 3242 3242 3243 3244 3244 3245 3245 3245 3246 3246 3247
3167 3171 3174 3177 3180 3183 3186 3188 3191 3192 3195 3197 3199 3201 3202 3204 3205 3207 3209 3210 3212 3213 3214 3216 3217 3219 3220 3221 3222 3223 3224 3225 3226 3227 3227 3228 3228 3229 3230 3230 3231 3232 3232 3233 3234 3234 3235 3236 3237 3238 3239 3240 3241 3241 3242 3243 3243 3244 3244 3245 3245 3245 3246
3163 3167 3171 3175 3178 3181 3184 3187 3189 3191 3193 3196 3197 3199 3201 3203 3205 3206 3208 3209 3211 3212 3213 3215 3216 3218 3219 3220 3221 3222 3223 3224 3225 3226 3227 3227 3228 3228 3229 3230 3231 3231 3232 3232 3233 3234 3234 3235 3236 3237 3238 3239 3239 3240 3241 3241 3242 3242 3243 3243 3244 3244 3245
3160 3164 3168 3173 3176 3179 3182 3185 3187 3189 3192 3194 3196 3198 3200 3202 3204 3205 3207 3208 3210 3211 3212 3214 3215 3216 3218 3219 3220 3221 3222 3223 3224 3225 3226 3226 3227 3227 3228 3229 3230 3231 3231 3232 3232 3233 3234 3234 3235 3236 3237 3238 3238 3239 3240 3240 3241 3241 3241 3242 3243 3243 3244
3157 3161 3166 3170 3173 3177 3180 3182 3185 3188 3190 3193 3195 3197 3199 3201 3203 3204 3206 3207 3208 3210 3211 3213 3214 3215 3216 3217 3219 3220 3221 3221 3222 3223 3224 3225 3225 3226 3227 3228 3229 3230 3230 3231 3232 3232 3233 3234 3234 3235 3236 3236 3237 3238 3238 3239 3240 3240 3240 3241 3241 3242 3243
3155 3159 3163 3167 3171 3174 3178 3181 3184 3186 3189 3192 3194 3196 3198 3200 3201 3203 3204 3206 3207 3208 3209 3211 3212 3213 3215 3216 3217 3218 3219 3220 3221 3222 3222 3223 3224 3225 3226 3227 3227 3228 3229 3230 3230 3231 3232 3232 3233 3234 3234 3235 3236 3236 3237 3238 3238 3239 3239 3240 3240 3241 3241
3156 3159 3162 3165 3169 3172 3176 3179 3182 3185 3188 3190 3193 3195 3197 3198 3199 3201 3202 3204 3205 3207 3208 3209 3210 3212 3213 3214 3215 3216 3217 3218 3219 3220 3221 3221 3222 3223 3224 3225 3226 3227 3227 3228 3229 3229 3230 3231 3232 3232 3233 3233 3234 3235 3235 3236 3237 3237 3238 3239 3239 3239 3240
3157 3159 3162 3164 3167 3171 3174 3177 3180 3183 3186 3188 3191 3193 3195 3197 3198 3199 3200 3202 3204 3205 3206 3208 3209 3210 3211 3212 3213 3215 3216 3217 3217 3218 3219 3220 3221 3222 3223 3223 3224 3225 3226 3226 3227 3228 3228 3229 3230 3231 3231 3232 3232 3233 3234 3234 3235 3236 3237 3237 3238 3238 3238
3158 3159 3162 3164 3167 3169 3172 3175 3178 3180 3183 3186 3188 3190 3193 3194 3196 3197 3199 3200 3202 3203 3204 3206 3207 3208 3209 3210 3212 3213 3214 3215 3215 3216 3217 3218 3219 3220 3220 3221 3222 3223 3224 3225 3225 3226 3227 3227 3228 3229 3229 3230 3231 3231 3232 3233 3233 3234 3235 3236 3236 3236 3237
3157 3159 3161 3163 3166 3168 3171 3173 3176 3178 3180 3182 3185 3187 3189 3191 3193 3195 3197 3198 3199 3201 3202 3204 3205 3206 3207 3209 3210 3211 3211 3212 3213 3214 3215 3216 3217 3218 3218 3219 3220 3221 3222 3223 3224 3224 3225 3226 3226 3227 3228 3228 3229 3229 3230 3231 3231 3232 3233 3234 3234 3235 3235
3157 3159 3160 3162 3164 3166 3168 3171 3173 3175 3177 3178 3180 3182 3184 3186 3189 3191 3194 3196 3197 3199 3200 3201 3202 3204 3205 3206 3207 3208 3209 3210 3211 3212 3213 3214 3215 3216 3216 3217 3218 3219 3220 3221 3222 3223 3223 3224 3224 3225 3226 3226 3227 3227 3228 3228 3229 3229 3230 3231 3232 3233 3233
3156 3158 3159 3161 3163 3164 3166 3168 3170 3172 3174 3175 3177 3178 3180 3182 3185 3187 3189 3192 3194 3196 3198 3200 3200 3201 3202 3203 3204 3205 3205 3206 3208 3209 3210 3212 3213 3214 3214 3215 3216 3217 3218 3219 3220 3221 3222 3222 3223 3223 3224 3225 3225 3225 3226 3226 3227 3227 3228 3229 3230 3230 3231
3156 3157 3158 3159 3160 3162 3164 3166 3168 3170 3172 3174 3176 3177 3179 3181 3183 3185 3186 3188 3189 3191 3193 3196 3197 3198 3199 3200 3201 3202 3203 3204 3205 3206 3208 3209 3210 3211 3212 3213 3213 3214 3216 3217 3218 3218 3219 3220 3221 3222 3222 3223 3223 3224 3224 3224 3225 3225 3226 3226 3227 3228 3229
3155 3156 3157 3157 3159 3160 3162 3164 3166 3168 3170 3172 3174 3176 3178 3179 3181 3183 3184 3186 3187 3188 3189 3190 3192 3193 3195 3197 3198 3199 3200 3202 3203 3204 3205 3206 3207 3208 3209 3210 3211 3212 3213 3214 3215 3216 3217 3218 3219 3220 3221 3221 3221 3222 3222 3222 3223 3224 3224 3225 3225 3226 3226
3155 3156 3156 3157 3158 3160 3161 3163 3165 3166 3167 3169 3171 3173 3175 3177 3178 3180 3181 3182 3184 3187 3188 3187 3187 3188 3189 3191 3194 3196 3198 3199 3200 3201 3202 3203 3204 3205 3207 3208 3209 3210 3211 3212 3213 3214 3215 3215 3216 3217 3218 3219 3219 3220 3220 3221 3221 3222 3223 3223 3223 3224 3224
3156 3157 3157 3158 3158 3159 3160 3161 3162 3163 3165 3166 3168 3170 3171 3173 3174 3176 3177 3178 3179 3182 3183 3184 3185 3185 3185 3186 3189 3192 3194 3195 3197 3198 3200 3201 3202 3203 3204 3205 3206 3207 3209 3210 3211 3212 3213 3214 3215 3215 3216 3216 3217 3218 3218 3219 3220 3220 3221 3221 3221 3222 3223
3155 3157 3157 3158 3158 3159 3160 3160 3161 3162 3163 3165 3166 3167 3168 3169 3171 3172 3173 3174 3175 3176 3177 3178 3180 3182 3183 3185 3186 3186 3189 3191 3193 3195 3196 3198 3199 3200 3201 3202 3203 3205 3206 3207 3209 3210 3211 3212 3213 3214 3214 3215 3215 3216 3217 3218 3218 3218 3219 3220 3220 3220 3221
3155 3156 3156 3157 3158 3159 3160 3160 3161 3161 3162 3162 3163 3164 3166 3167 3168 3169 3170 3170 3170 3171 3172 3173 3175 3177 3180 3183 3183 3183 3184 3186 3188 3190 3192 3194 3196 3197 3198 3199 3200 3202 3203 3204 3205 3207 3208 3209 3210 3211 3212 3213 3214 3214 3215 3216 3216 3217 3218 3218 3218 3218 3218
3154 3154 3155 3156 3157 3158 3158 3159 3160 3160 3160 3160 3161 3161 3162 3164 3165 3165 3165 3165 3165 3166 3167 3167 3169 3171 3173 3176 3178 3179 3179 3180 3183 3185 3187 3190 3192 3194 3195 3196 3197 3199 3200 3201 3202 3204 3205 3206 3207 3208 3209 3211 3211 3212 3213 3213 3214 3215 3215 3216 3216 3216 3216
3152 3153 3153 3154 3155 3155 3156 3157 3157 3158 3158 3158 3159 3159 3159 3160 3160 3161 3161 3161 3160 3161 3162 3164 3166 3168 3171 3174 3175 3176 3176 3177 3180 3183 3184 3185 3188 3189 3191 3192 3193 3195 3197 3198 3200 3201 3202 3203 3204 3205 3206 3207 3209 3209 3210 3210 3211 3212 3213 3214 3214 3214 3214
3151 3152 3152 3152 3153 3153 3154 3154 3155 3155 3155 3156 3156 3156 3156 3156 3156 3157 3157 3157 3157 3157 3158 3159 3161 3164 3167 3171 3172 3172 3173 3174 3176 3179 3180 3180 3182 3185 3186 3188 3190 3192 3193 3195 3197 3198 3199 3200 3201 3202 3203 3204 3206 3206 3207 3208 3209 3210 3210 3211 3212 3212 3212
3150 3150 3150 3150 3151 3151 3152 3152 3152 3153 3153 3153 3153 3154 3154 3154 3153 3153 3153 3153 3154 3154 3154 3155 3156 3158 3161 3164 3167 3170 3171 3172 3173 3175 3177 3178 3179 3182 3183 3184 3185 3187 3190 3192 3193 3194 3196 3197 3198 3198 3200 3201 3202 3203 3204 3205 3206 3207 3208 3208 3209 3209 3210
3149 3149 3149 3149 3149 3149 3150 3150 3150 3150 3151 3151 3151 3151 3151 3151 3150 3150 3150 3150 3151 3151 3151 3152 3152 3153 3156 3158 3162 3166 3168 3169 3170 3173 3175 3176 3177 3179 3180 3181 3181 3183 3185 3188 3190 3191 3192 3193 3194 3195 3196 3198 3199 3200 3201 3202 3203 3204 3205 3205 3206 3207 3207
3147 3148 3148 3148 3148 3148 3148 3148 3148 3148 3149 3149 3149 3149 3149 3148 3148 3148 3148 3148 3149 3149 3150 3150 3151 3151 3152 3154 3157 3161 3162 3164 3167 3170 3172 3173 3175 3177 3178 3180 3181 3182 3182 3184 3185 3186 3187 3188 3190 3192 3193 3195 3196 3197 3198 3199 3200 3201 3202 3202 3203 3204 3204
3147 3147 3147 3147 3147 3147 3147 3147 3147 3147 3147 3147 3147 3147 3147 3146 3146 3146 3146 3147 3148 3148 3149 3150 3151 3150 3150 3151 3154 3156 3158 3160 3163 3166 3168 3170 3173 3176 3177 3178 3180 3181 3180 3180 3181 3182 3182 3182 3184 3188 3190 3191 3193 3194 3195 3196 3197 3198 3199 3199 3200 3200 3200
3146 3147 3147 3147 3147 3147 3146 3146 3146 3146 3145 3145 3145 3145 3145 3144 3144 3144 3145 3146 3146 3147 3148 3149 3149 3149 3149 3149 3151 3153 3155 3158 3161 3163 3165 3168 3170 3173 3174 3176 3177 3177 3177 3178 3178 3179 3179 3179 3181 3184 3186 3188 3190 3191 3192 3193 3194 3194 3195 3195 3196 3196 3197
3146 3147 3146 3146 3146 3146 3146 3146 3146 3145 3145 3145 3144 3144 3144 3144 3143 3144 3145 3145 3145 3145 3146 3147 3148 3147 3147 3147 3149 3150 3152 3155 3157 3160 3163 3165 3167 3169 3171 3172 3173 3173 3174 3175 3176 3177 3178 3179 3180 3181 3183 3185 3186 3188 3189 3189 3189 3189 3189 3190 3191 3192 3193
3146 3147 3147 3147 3147 3147 3147 3147 3146 3146 3145 3144 3144 3143 3143 3143 3143 3143 3144 3145 3145 3145 3145 3146 3146 3145 3145 3146 3147 3149 3150 3152 3155 3158 3160 3162 3164 3166 3167 3168 3169 3170 3171 3172 3174 3175 3177 3177 3178 3179 3180 3182 3183 3184 3184 3184 3184 3184 3183 3183 3184 3187 3188
3147 3147 3147 3148 3148 3147 3147 3147 3146 3146 3145 3145 3144 3143 3143 3143 3143 3143 3143 3144 3144 3145 3145 3145 3145 3145 3145 3146 3146 3147 3149 3151 3154 3155 3157 3159 3160 3162 3164 3165 3165 3166 3168 3169 3170 3172 3174 3175 3176 3177 3177 3178 3179 3180 3181 3181 3181 3180 3179 3178 3180 3182 3184
3147 3148 3148 3148 3148 3148 3147 3147 3147 3147 3146 3146 3145 3145 3144 3144 3144 3144 3144 3144 3144 3144 3144 3144 3145 3146 3146 3146 3146 3147 3148 3150 3152 3153 3155 3157 3158 3158 3160 3162 3162 3162 3163 3164 3166 3169 3170 3171 3173 3174 3174 3175 3176 3177 3177 3178 3178 3178 3177 3177 3177 3178 3179
3147 3148 3149 3149 3148 3148 3148 3148 3148 3148 3147 3147 3147 3147 3146 3146 3145 3145 3145 3145 3145 3145 3144 3144 3145 3146 3147 3147 3148 3149 3150 3150 3151 3153 3155 3156 3157 3157 3159 3160 3161 3161 3161 3162 3164 3166 3168 3169 3170 3171 3171 3172 3173 3173 3174 3175 3176 3177 3176 3176 3175 3175 3176
3148 3149 3149 3149 3149 3149 3149 3149 3149 3149 3149 3148 3148 3148 3148 3147 3147 3146 3146 3146 3146 3146 3145 3145 3146 3146 3147 3148 3149 3150 3151 3151 3152 3153 3154 3155 3156 3156 3158 3159 3159 3161 3161 3162 3163 3164 3165 3165 3166 3167 3167 3168 3168 3168 3169 3170 3172 3173 3174 3173 3173 3173 3173
3149 3149 3149 3149 3149 3150 3150 3150 3150 3150 3149 3149 3149 3149 3149 3149 3148 3147 3147 3147 3147 3147 3146 3146 3147 3147 3148 3149 3150 3151 3152 3152 3153 3153 3153 3154 3155 3156 3156 3157 3157 3159 3159 3160 3161 3161 3161 3162 3163 3164 3164 3164 3164 3164 3164 3164 3166 3168 3169 3169 3170 3170 3170
3149 3150 3150 3150 3150 3151 3151 3151 3151 3151 3150 3150 3150 3150 3150 3150 3150 3149 3149 3148 3148 3148 3148 3148 3148 3148 3148 3149 3150 3151 3151 3152 3153 3153 3154 3154 3155 3155 3155 3156 3156 3156 3157 3158 3158 3158 3159 3160 3161 3161 3161 3161 3161 3162 3162 3162 3164 3165 3166 3166 3166 3167 3167
3149 3150 3150 3151 3151 3151 3152 3152 3152 3152 3151 3151 3151 3151 3151 3151 3151 3151 3151 3151 3150 3150 3150 3150 3150 3150 3150 3150 3150 3151 3151 3152 3152 3153 3153 3154 3154 3155 3155 3155 3155 3156 3156 3157 3158 3158 3159 3159 3160 3160 3160 3161 3161 3162 3162 3162 3163 3164 3164 3164 3164 3164 3164
3149 3150 3151 3151 3151 3152 3152 3152 3152 3152 3152 3152 3152 3152 3152 3153 3153 3152 3152 3152 3152 3152 3152 3152 3152 3151 3151 3151 3151 3152 3152 3152 3153 3153 3154 3154 3154 3154 3155 3155 3156 3156 3157 3157 3158 3158 3159 3159 3159 3160 3160 3161 3161 3161 3162 3162 3162 3163 3163 3163 3163 3162 3162
3150 3150 3151 3151 3151 3152 3152 3152 3152 3152 3152 3152 3152 3152 3153 3153 3153 3153 3153 3153 3153 3153 3153 3153 3153 3153 3153 3153 3153 3153 3153 3153 3154 3154 3154 3154 3154 3155 3155 3155 3156 3156 3157 3157 3157 3158 3158 3158 3159 3159 3159 3160 3160 3161 3161 3161 3161 3161 3161 3161 3161 3161 3161
3150 3150 3151 3151 3151 3152 3152 3152 3152 3152 3152 3152 3152 3152 3153 3153 3153 3153 3153 3153 3153 3154 3154 3154 3154 3154 3153 3153 3153 3153 3153 3154 3154 3154 3154 3154 3155 3155 3156 3156 3156 3156 3156 3157 3157 3157 3157 3157 3158 3158 3158 3159 3159 3160 3160 3160 3160 3160 3160 3160 3160 3159 3159